Tracking 27122 objects as of 25-Mar-2023
HD Live streaming from Space Station
objects crossing your sky now

CHINASAT 7

Track CHINASAT 7 now!
CHINASAT 7 is classified as:


NORAD ID: 24282
Int'l Code: 1996-048A
Perigee: 20,630.5 km
Apogee: 47,556.0 km
Inclination: 18.4 °
Period: 1,350.1 minutes
Semi major axis: 40464 km
RCS: 1 m2 (large)
Launch date: August 18, 1996
Source: People's Republic of China (PRC)
Launch site: Xichang Space Center, China (XSC)
Your satellite tracking list
Your tracking list is empty




NASA's NSSDC Master Catalog

Two Line Element Set (TLE):
1 24282U 96048A   23083.33328719 -.00000128  00000-0  00000-0 0  9999
2 24282  18.3767 223.0547 3327080 216.1714 131.2352  1.06658611106121
Source of the keplerian elements: AFSPC